St. Johns, AZ

7:59 PM MST on October 20, 2019 (GMT -0700)
Saint Johns Industrial

Weather History for KSJN - September, 2019

Change the Weather History Date:

Wednesday, September 18, 2019

  Actual Average (KLSB) Record (KLSB)
Temperature  
Mean Temperature 61 °F -  
Max Temperature 79 °F 87 °F 91 °F (2015)
Min Temperature 43 °F 55 °F 59 °F (2015)
Degree Days  
Heating Degree Days 4    
Growing Degree Days 11 (Base 50)    
Moisture  
Dew Point 39 °F    
Average Humidity 38    
Maximum Humidity 71    
Minimum Humidity 17    
Precipitation  
Precipitation 0.00 in - - ()
Sea Level Pressure  
Sea Level Pressure 29.90 in    
Wind  
Wind Speed 6 mph (SSW)    
Max Wind Speed 23 mph    
Max Gust Speed 32 mph    
Visibility 10 miles    
Events      
Averages and records for this station are not official NWS values.
T = Trace of Precipitation, MM = Missing Value Source: NWS Daily Summary

Daily Weather History Graph

Daily Weather History Graph

Search for Another Location

Airport or City:

Astronomy

Sep. 18, 2019 Rise Set
Actual Time 6:02 AM MST 6:20 PM MST
Civil Twilight 5:37 AM MST 6:45 PM MST
Nautical Twilight 5:07 AM MST 7:14 PM MST
Astronomical Twilight 4:38 AM MST 7:44 PM MST
Moon 9:06 PM MST (9/18) 9:59 AM MST (9/18)
Length of Visible Light 13h 07m
Length of Day
12h 17m
Waning Gibbous, 82% of the Moon is Illuminated
Sep 18
Waning Gibbous
Sep 21
Last Quarter
Sep 28
New
Oct 5
First Quarter
Oct 13
Full

Hourly Weather History & Observations

Time (MST) Temp. Dew Point Humidity Pressure Visibility Wind Dir Wind Speed Gust Speed Precip Events Conditions
12:54 AM 57.0 °F 39.9 °F 53% 29.90 in 10.0 mi East 3.5 mph - N/A   Clear
1:54 AM 52.0 °F 39.9 °F 63% 29.91 in 10.0 mi Calm Calm - N/A   Clear
2:54 AM 48.9 °F 37.9 °F 66% 29.93 in 10.0 mi Calm Calm - N/A   Clear
3:54 AM 50.0 °F 41.0 °F 71% 29.92 in 10.0 mi SE 3.5 mph - N/A   Clear
4:54 AM 46.9 °F 37.9 °F 71% 29.95 in 10.0 mi Calm Calm - N/A   Clear
5:54 AM 52.0 °F 41.0 °F 66% 29.96 in 10.0 mi SE 3.5 mph - N/A   Clear
6:54 AM 55.0 °F 39.9 °F 57% 29.98 in 10.0 mi South 4.6 mph - N/A   Clear
7:54 AM 62.1 °F 39.9 °F 44% 29.98 in 10.0 mi East 3.5 mph - N/A   Clear
8:54 AM 69.1 °F 42.1 °F 38% 29.96 in 10.0 mi ESE 3.5 mph - N/A   Clear
9:54 AM 75.9 °F 44.1 °F 32% 29.94 in 10.0 mi Variable 4.6 mph - N/A   Clear
10:54 AM 79.0 °F 36.0 °F 21% 29.93 in 10.0 mi SW 10.4 mph 21.9 mph N/A   Scattered Clouds
11:54 AM 81.0 °F 36.0 °F 20% 29.90 in 10.0 mi SW 10.4 mph 21.9 mph N/A   Scattered Clouds
12:54 PM 84.0 °F 37.0 °F 19% 29.88 in 10.0 mi WSW 15.0 mph 32.2 mph N/A   Scattered Clouds
1:54 PM 82.9 °F 37.9 °F 20% 29.88 in 10.0 mi West 13.8 mph - N/A   Partly Cloudy
2:54 PM 84.9 °F 36.0 °F 17% 29.87 in 10.0 mi WSW 16.1 mph 23.0 mph N/A   Mostly Cloudy
3:54 PM 84.0 °F 34.0 °F 17% 29.85 in 10.0 mi WSW 16.1 mph 21.9 mph N/A   Clear
4:54 PM 80.1 °F 37.0 °F 21% 29.86 in 10.0 mi SW 10.4 mph - N/A   Clear
5:54 PM 79.0 °F 36.0 °F 21% 29.85 in 10.0 mi SW 12.7 mph - N/A   Clear
6:54 PM 75.0 °F 39.9 °F 28% 29.86 in 10.0 mi SW 11.5 mph - N/A   Clear
7:54 PM 71.1 °F 39.9 °F 32% 29.87 in 10.0 mi SW 8.1 mph - N/A   Clear
8:54 PM 68.0 °F 39.0 °F 35% 29.86 in 10.0 mi South 8.1 mph - N/A   Clear
9:54 PM 64.0 °F 37.9 °F 38% 29.86 in 10.0 mi SE 4.6 mph - N/A   Clear
10:54 PM 62.1 °F 39.0 °F 43% 29.86 in 10.0 mi South 4.6 mph - N/A   Clear
11:54 PM 59.0 °F 39.0 °F 48% 29.86 in 10.0 mi South 4.6 mph - N/A   Clear